Location: Byszew
(52.1813°N, 19.2693°E)
Time: 17:49:07
(UTC+00:00)

HJ-1C - Pass Details

Date: 03 March 2021
Orbit: 428 x 440 km, 97.1° (Epoch: 17 April)

Event Time Altitude Azimuth Distance (km) Brightness Sun altitude
Rises 16:59:48 0° 148° (SSE) 2,418 6.8 -5.9°
Reaches altitude 10° 17:01:53 10° 140° (SE) 1,552 5.8 -6.3°
Maximum altitude 17:05:00 39° 70° (ENE) 675 3.8 -6.7°
Drops below altitude 10° 17:08:08 10° 0° (N) 1,558 6.1 -7.2°
Sets 17:10:14 0° 353° (N) 2,429 7.2 -7.5°
